Regional Weather Roundup
Issued by NWS Charleston, SC

Current Version | Previous Version | Text Only | Print | Product List | Glossary Off
Versions: 1 2 3 4 5 6 7 8 9 10 11 12 13 14 15 16 17 18 19 20 21 22 23 24 25 26 27 28 29 30 31 32 33 34 35 36 37 38 39 40 41 42 43 44 45 46 47 48 49 50

000
ASUS42 KCHS 211525
RWRCHS

REGIONAL WEATHER ROUNDUP
NATIONAL WEATHER SERVICE CHARLESTON SC
1000 AM EST SUN DEC 21 2014

NOTE: "FAIR" INDICATES FEW OR NO CLOUDS BELOW 12,000 FEET WITH NO
SIGNIFICANT WEATHER AND/OR OBSTRUCTIONS TO VISIBILITY.

NOT ALL STATIONS ARE QUALITY CONTROLLED BY THE NATIONAL
WEATHER SERVICE. USE DATA WITH CAUTION...ESPECIALLY
DEWPOINT OBSERVATIONS.

SCZ027-030-031-034>040-042>050-211600-
...SOUTHEAST SOUTH CAROLINA...

CITY           SKY/WX    TMP DP  RH WIND       PRES   REMARKS
N CHARLESTON   LGT RAIN  46  41  82 NE10      30.24R
WATERFRONT PRK NOT AVBL
MOUNT PLEASANT CLOUDY    46  43  87 N5        30.24S
PINOPOLIS        N/A     46  39  76 NE8       30.15F
MONCKS CORNER  FAIR      46  37  71 N3        30.26R
SUMMERVILLE    CLOUDY    45  41  87 NE6       30.26S
BEAUFORT MCAS  CLOUDY    48  44  86 N13       30.23R
BEAUFORT ARPT  CLOUDY    46  46 100 NE12      30.21S
HILTON HEAD IS CLOUDY    48  48 100 N9        30.21F
WALTERBORO     CLOUDY    46  46 100 NE6       30.25S
ALLENDALE      CLOUDY    46  41  81 VRB6      30.23S

...SOUTHERN MIDLANDS AND PEE DEE...

CITY           SKY/WX    TMP DP  RH WIND       PRES   REMARKS
GEORGETOWN     NOT AVBL
KINGSTREE      NOT AVBL
ORANGEBURG     CLOUDY    45  36  70 NE7       30.26R
BARNWELL       PTSUNNY   46  39  76 NE9       30.25S
AIKEN          CLOUDY    48  39  71 E14       30.28S
MANNING        NOT AVBL
COLUMBIA       CLOUDY    48  36  63 NE7       30.28R
SUMTER         CLOUDY    44  36  73 NE9       30.26F
FLORENCE       PTSUNNY   45  36  70 NE9       30.29R
MYRTLE BEACH   NOT AVBL
N MYRTLE BEACH CLOUDY    44  35  70 NE10      30.26S

$$

GAZ063-065-086>088-099>101-113>116-118-119-134>141-150-211600-
...SOUTHEAST GEORGIA...

CITY           SKY/WX    TMP DP  RH WIND       PRES   REMARKS
SAVANNAH ARPT  CLOUDY    49  46  90 NE9       30.21S
HUNTER AAF     CLOUDY    49  49  97 NE8       30.18R
FORT STEWART   CLOUDY    49  47  93 NE8       30.19R
STATESBORO     CLOUDY    47  47 100 NE3       30.22S
SYLVANIA       CLOUDY    47  46  96 NE6       30.23F
CLAXTON        LGT RAIN  48  46  93 NE7       30.22R

...CSRA...CENTRAL AND FAR SOUTHEAST GEORGIA...

CITY           SKY/WX    TMP DP  RH WIND       PRES   REMARKS
THOMSON        CLOUDY    51  47  88 NE8       30.28S
AUGUSTA-BUSH   CLOUDY    49  41  74 NE8       30.25R
AUGUSTA-DANIEL CLOUDY    49  44  83 NE8       30.24S
SWAINSBORO     CLOUDY    50  50 100 NE5       30.22R
VIDALIA        CLOUDY    48  46  93 NE7       30.22R
EASTMAN        CLOUDY    51  51 100 E8        30.23R FOG
HAZLEHURST     CLOUDY    52  52 100 NE5       30.19S FOG
ALMA           LGT RAIN  51  49  92 NE3       30.18R FOG
WAYCROSS       CLOUDY    55  54  95 E7        30.18S
JESUP          DRIZZLE   54  52  94 E5        30.19R
BAXLEY         DRIZZLE   52  50  93 NE6       30.19R
BRUNSWICK      CLOUDY    54  52  94 NE8       30.19R
SAINT SIMONS   CLOUDY    54  52  93 NE12      30.17R

$$

SCZ027-028-034-036>038-045-046-048>050-GAZ119-141-211600-
...LAKE AND SUPPLEMENTAL COASTAL OBSERVATIONS...

STATION/POSITION TIME  TEMP    WIND        PRES    WAVE   SWELL
                       AIR SEA DIR/SP/G            HT/PER HT/PER/DIR
                 (UTC) (F)     (DEG/KT/KT) (MB)    (FT/S) (FT/S/D)
UPR LAKE MARION  NOT AVBL
WINYAH BAY       1500   45      30/  9     1023.0S
LAKE MURRAY      1500   43      40/  3/  6 1024.7R
ACE BASIN NERRS  1500   47      30/  3     1023.0S
FORT PULASKI     1500   50 56   30/ 12/ 15 1023.0S
SAPELO ISLAND    1500   52      30/ 10     1022.0R

$$

ANZ835-935-AMZ111-154-330-350-352-354-370-450-454-472-211600-
...C-MAN AND BUOY OBSERVATIONS...

STATION/POSITION TIME  TEMP    WIND        PRES    WAVE   SWELL
                       AIR SEA DIR/SP/G            HT/PER HT/PER/DIR
                 (UTC) (F)     (DEG/KT/KT) (MB)    (FT/S) (FT/S/D)
BUOY 41004       1500   60 70   30/ 21/ 25 1021.4S   7/ 6   2/ 9
BUOY 41008       1500   56 59   40/ 19/ 23 1021.0R   6/ 5
FOLLY BEACH CMAN 1500   47      20/ 13/ 16 1024.1R
CAPERS NEARSHORE 1400   47      40/ 16/ 19   N/A
FRIPP NEARSHORE  NOT AVBL


STATION/POSITION TIME  TEMP    WIND        PRES    WAVE   SWELL
                       AIR SEA DIR/SP/G            HT/PER HT/PER/DIR
                 (UTC) (F)     (DEG/KT/KT) (MB)    (FT/S) (FT/S/D)
5E ST. MARYS GA  1500      62                N/A     6/ 5
FRYING PAN BUOY  1500   56 69   40/ 21/ 25 1023.8R   6/ 6   2/150/ 9
BUOY 41025       1500   53                 1025.3R   4/ 5
CAPE LOOKOUT NC  1500   44      20/ 14/ 18 1025.7R
BUOY 41002       1407   67 71   90/ 19/ 21 1021.4R   6/ 6   2/ 60/10
BUOY 41010       1500   75 77  190/ 10/ 12 1020.3R   3/10   2/ 80/10
ST AUGUSTINE FL  1500   62     350/ 16/ 17 1020.9R


$$


USA.gov is the U.S. government's official web portal to all federal, state and local government web resources and services.